QPF
0.00 0.00 0.00 0.00 0.01 0.01 0.02 0.02 0.01 0.00 0.01 0.01 0.00 0.01 0.02 0.03 0.02 0.01 0.01 0.00 0.00 0.02 0.01 0.01 0.02 0.01 0.01 0.02 0.02 0.03 0.04 0.04 0.04 0.03 0.02 0.01 0.01 0.00 0.00 0.00 0.01 0.03 0.04 0.03 0.04 0.04 0.02 0.00 0.00 0.00 0.00 0.00 0.00 0.00
0.00 0.00 0.00 0.00 0.00 0.00 0.00 0.01 0.02 0.01 0.01 0.03 0.01 0.01 0.01 0.03 0.01 0.01 0.00 0.01 0.00 0.00 0.01 0.00 0.00 0.00 0.00 0.00 0.01 0.03 0.02 0.04 0.04 0.03 0.02 0.02 0.02 0.01 0.01 0.00 0.00 0.01 0.01 0.02 0.05 0.05 0.01 0.00 0.00 0.00 0.00 0.00 0.00 0.00
0.00 0.00 0.00 0.00 0.00 0.00 0.00 0.00 0.01 0.01 0.00 0.01 0.01 0.02 0.03 0.02 0.00 0.00 0.00 0.00 0.00 0.00 0.00 0.00 0.00 0.00 0.00 0.00 0.00 0.03 0.03 0.04 0.05 0.07 0.09 0.08 0.07 0.03 0.03 0.01 0.02 0.00 0.00 0.01 0.02 0.00 0.00 0.00 0.00 0.00 0.00 0.00 0.00 0.00
0.00 0.00 0.00 0.00 0.00 0.00 0.00 0.00 0.00 0.00 0.00 0.00 0.00 0.02 0.04 0.02 0.00 0.00 0.00 0.00 0.00 0.00 0.00 0.00 0.00 0.00 0.00 0.00 0.00 0.00 0.02 0.01 0.03 0.06 0.07 0.04 0.04 0.05 0.06 0.05 0.05 0.05 0.02 0.03 0.02 0.01 0.00 0.00 0.00 0.00 0.00 0.00 0.00 0.00
0.00 0.00 0.00 0.00 0.00 0.00 0.00 0.00 0.00 0.00 0.00 0.00 0.00 0.00 0.02 0.01 0.00 0.02 0.03 0.01 0.00 0.00 0.01 0.01 0.00 0.00 0.00 0.00 0.00 0.00 0.00 0.01 0.03 0.04 0.04 0.03 0.03 0.04 0.04 0.03 0.01 0.01 0.01 0.01 0.03 0.03 0.01 0.02 0.00 0.00 0.00 0.00 0.00 0.00
0.00 0.00 0.00 0.00 0.00 0.00 0.00 0.00 0.00 0.00 0.00 0.00 0.00 0.00 0.01 0.02 0.02 0.04 0.02 0.02 0.00 0.00 0.00 0.00 0.02 0.01 0.00 0.00 0.00 0.00 0.00 0.01 0.03 0.03 0.04 0.04 0.05 0.06 0.04 0.03 0.02 0.00 0.00 0.00 0.01 0.00 0.00 0.00 0.00 0.00 0.00 0.00 0.00 0.00
0.00 0.00 0.00 0.00 0.00 0.00 0.00 0.00 0.00 0.01 0.00 0.00 0.01 0.00 0.02 0.01 0.02 0.02 0.02 0.01 0.00 0.01 0.01 0.01 0.03 0.01 0.02 0.02 0.02 0.01 0.01 0.02 0.03 0.01 0.02 0.02 0.02 0.03 0.02 0.02 0.02 0.00 0.00 0.00 0.00 0.00 0.00 0.00 0.00 0.00 0.00 0.00 0.00 0.00
0.00 0.00 0.00 0.00 0.00 0.00 0.00 0.00 0.00 0.01 0.00 0.00 0.02 0.02 0.02 0.03 0.03 0.01 0.02 0.00 0.00 0.00 0.00 0.01 0.02 0.01 0.01 0.01 0.02 0.01 0.01 0.01 0.01 0.02 0.02 0.01 0.02 0.02 0.03 0.02 0.00 0.00 0.00 0.00 0.00 0.00 0.00 0.00 0.00 0.00 0.00 0.00 0.00 0.00
0.00 0.00 0.00 0.00 0.00 0.00 0.00 0.00 0.00 0.00 0.00 0.02 0.03 0.04 0.06 0.04 0.01 0.01 0.00 0.02 0.02 0.02 0.01 0.01 0.02 0.04 0.00 0.00 0.00 0.00 0.00 0.01 0.01 0.01 0.01 0.02 0.04 0.04 0.01 0.01 0.00 0.00 0.00 0.00 0.00 0.00 0.00 0.00 0.00 0.00 0.00 0.00 0.00 0.00
0.00 0.00 0.00 0.00 0.00 0.00 0.00 0.00 0.00 0.00 0.02 0.03 0.03 0.03 0.02 0.01 0.02 0.01 0.00 0.01 0.00 0.00 0.01 0.02 0.02 0.02 0.00 0.01 0.02 0.02 0.01 0.03 0.02 0.01 0.01 0.02 0.03 0.01 0.00 0.00 0.00 0.00 0.00 0.00 0.00 0.00 0.00 0.00 0.00 0.00 0.00 0.00 0.00 0.00
0.00 0.00 0.00 0.00 0.00 0.00 0.00 0.00 0.00 0.02 0.03 0.02 0.02 0.01 0.03 0.01 0.01 0.01 0.00 0.01 0.01 0.01 0.01 0.01 0.00 0.01 0.00 0.02 0.03 0.02 0.03 0.02 0.04 0.02 0.02 0.02 0.02 0.01 0.00 0.00 0.00 0.00 0.00 0.00 0.00 0.00 0.00 0.00 0.00 0.00 0.00 0.00 0.00 0.00
0.00 0.00 0.00 0.00 0.00 0.00 0.00 0.00 0.01 0.02 0.02 0.01 0.00 0.00 0.00 0.01 0.01 0.01 0.02 0.01 0.02 0.03 0.01 0.01 0.00 0.01 0.00 0.00 0.00 0.00 0.00 0.00 0.01 0.01 0.01 0.01 0.00 0.00 0.00 0.00 0.00 0.00 0.00 0.00 0.00 0.00 0.00 0.00 0.00 0.00 0.00 0.00 0.00 0.00
0.00 0.00 0.00 0.00 0.00 0.00 0.00 0.00 0.01 0.01 0.00 0.00 0.00 0.00 0.01 0.01 0.01 0.01 0.00 0.00 0.01 0.01 0.00 0.01 0.01 0.02 0.01 0.01 0.01 0.00 0.00 0.00 0.00 0.01 0.00 0.00 0.00 0.00 0.00 0.00 0.00 0.00 0.00 0.00 0.00 0.00 0.00 0.00 0.00 0.00 0.00 0.00 0.00 0.00
0.00 0.00 0.00 0.00 0.00 0.00 0.00 0.00 0.00 0.00 0.00 0.00 0.00 0.00 0.00 0.00 0.00 0.00 0.01 0.01 0.00 0.00 0.01 0.03 0.02 0.02 0.01 0.00 0.00 0.00 0.00 0.00 0.00 0.00 0.00 0.00 0.00 0.00 0.00 0.00 0.00 0.00 0.00 0.00 0.00 0.00 0.00 0.00 0.00 0.00 0.00 0.00 0.00 0.00
0.00 0.00 0.00 0.00 0.00 0.00 0.00 0.00 0.00 0.00 0.00 0.00 0.00 0.00 0.00 0.00 0.00 0.00 0.00 0.00 0.00 0.00 0.02 0.02 0.01 0.01 0.00 0.00 0.00 0.00 0.00 0.00 0.00 0.00 0.00 0.00 0.00 0.00 0.00 0.00 0.00 0.00 0.00 0.00 0.00 0.00 0.00 0.00 0.00 0.00 0.00 0.00 0.00 0.00
0.00 0.00 0.00 0.00 0.00 0.00 0.00 0.00 0.00 0.00 0.00 0.00 0.00 0.00 0.01 0.01 0.01 0.00 0.00 0.00 0.00 0.00 0.01 0.01 0.00 0.00 0.00 0.00 0.00 0.00 0.00 0.00 0.00 0.00 0.00 0.00 0.00 0.00 0.00 0.00 0.00 0.00 0.00 0.00 0.00 0.00 0.00 0.00 0.00 0.00 0.00 0.00 0.00 0.00
0.00 0.00 0.00 0.00 0.00 0.00 0.00 0.00 0.00 0.00 0.00 0.00 0.00 0.00 0.00 0.01 0.01 0.00 0.00 0.00 0.00 0.01 0.00 0.00 0.00 0.00 0.00 0.00 0.00 0.00 0.00 0.00 0.01 0.01 0.00 0.00 0.00 0.00 0.00 0.00 0.00 0.00 0.00 0.00 0.00 0.00 0.00 0.00 0.00 0.00 0.00 0.00 0.00 0.00
0.00 0.00 0.00 0.00 0.00 0.00 0.00 0.00 0.00 0.00 0.00 0.00 0.00 0.00 0.00 0.00 0.00 0.00 0.00 0.00 0.01 0.01 0.00 0.00 0.00 0.00 0.00 0.00 0.00 0.00 0.00 0.00 0.00 0.00 0.00 0.00 0.00 0.00 0.00 0.00 0.00 0.00 0.00 0.00 0.00 0.00 0.00 0.00 0.00 0.00 0.00 0.00 0.00 0.00
0.00 0.00 0.00 0.00 0.00 0.00 0.00 0.00 0.00 0.00 0.00 0.00 0.00 0.00 0.00 0.00 0.00 0.00 0.00 0.00 0.00 0.00 0.00 0.00 0.00 0.00 0.00 0.00 0.00 0.00 0.00 0.00 0.00 0.00 0.00 0.00 0.00 0.00 0.00 0.00 0.00 0.00 0.00 0.00 0.00 0.00 0.00 0.00 0.00 0.00 0.00 0.00 0.00 0.00
0.00 0.00 0.00 0.00 0.00 0.00 0.00 0.00 0.00 0.00 0.00 0.00 0.00 0.00 0.00 0.00 0.00 0.00 0.00 0.00 0.00 0.00 0.00 0.00 0.00 0.00 0.00 0.00 0.00 0.00 0.00 0.00 0.00 0.00 0.00 0.00 0.00 0.00 0.00 0.00 0.00 0.00 0.00 0.00 0.00 0.00 0.00 0.00 0.00 0.00 0.00 0.00 0.00 0.00
0.00 0.00 0.00 0.00 0.00 0.00 0.00 0.00 0.00 0.00 0.00 0.00 0.00 0.00 0.00 0.00 0.00 0.00 0.00 0.00 0.00 0.00 0.00 0.00 0.00 0.00 0.00 0.00 0.00 0.00 0.00 0.00 0.00 0.00 0.00 0.00 0.00 0.00 0.00 0.00 0.00 0.00 0.00 0.00 0.00 0.00 0.00 0.00 0.00 0.00 0.00 0.00 0.00 0.00
0.00 0.00 0.00 0.00 0.00 0.00 0.00 0.00 0.00 0.00 0.00 0.00 0.00 0.00 0.00 0.00 0.00 0.00 0.00 0.00 0.00 0.00 0.00 0.00 0.00 0.00 0.00 0.00 0.00 0.00 0.00 0.00 0.00 0.00 0.00 0.00 0.00 0.00 0.00 0.00 0.00 0.00 0.00 0.00 0.00 0.00 0.00 0.00 0.00 0.00 0.00 0.00 0.00 0.00
0.00 0.00 0.00 0.00 0.00 0.00 0.00 0.00 0.00 0.00 0.00 0.00 0.00 0.00 0.00 0.00 0.00 0.00 0.00 0.00 0.00 0.00 0.00 0.00 0.00 0.00 0.00 0.00 0.00 0.00 0.00 0.00 0.00 0.00 0.00 0.00 0.00 0.00 0.00 0.00 0.00 0.00 0.00 0.00 0.00 0.00 0.00 0.00 0.00 0.00 0.00 0.00 0.00 0.00
0.00 0.00 0.00 0.00 0.00 0.00 0.00 0.00 0.00 0.00 0.00 0.00 0.00 0.00 0.00 0.00 0.00 0.00 0.00 0.00 0.00 0.00 0.00 0.00 0.00 0.00 0.00 0.00 0.00 0.00 0.00 0.00 0.00 0.00 0.00 0.00 0.00 0.00 0.00 0.00 0.00 0.00 0.00 0.00 0.00 0.00 0.00 0.00 0.00 0.00 0.00 0.00 0.00 0.00
0.00 0.00 0.00 0.00 0.00 0.00 0.00 0.00 0.00 0.00 0.00 0.00 0.00 0.00 0.00 0.00 0.00 0.00 0.00 0.00 0.00 0.00 0.00 0.00 0.00 0.00 0.00 0.00 0.00 0.00 0.00 0.00 0.00 0.00 0.00 0.00 0.00 0.00 0.00 0.00 0.00 0.00 0.00 0.00 0.00 0.00 0.00 0.00 0.00 0.00 0.00 0.00 0.00 0.00
0.00 0.00 0.00 0.00 0.00 0.00 0.00 0.00 0.00 0.00 0.00 0.00 0.00 0.00 0.00 0.00 0.00 0.00 0.00 0.00 0.00 0.01 0.01 0.00 0.01 0.00 0.00 0.00 0.00 0.00 0.00 0.00 0.00 0.00 0.00 0.00 0.00 0.00 0.00 0.00 0.00 0.00 0.00 0.00 0.00 0.00 0.00 0.00 0.00 0.00 0.00 0.00 0.00 0.00
0.00 0.00 0.00 0.00 0.00 0.00 0.00 0.00 0.00 0.00 0.00 0.00 0.00 0.00 0.00 0.00 0.00 0.00 0.00 0.00 0.00 0.00 0.00 0.00 0.00 0.00 0.00 0.00 0.00 0.00 0.00 0.00 0.00 0.00 0.00 0.00 0.00 0.00 0.00 0.00 0.00 0.00 0.00 0.00 0.00 0.00 0.00 0.00 0.00 0.00 0.00 0.00 0.00 0.00
0.00 0.00 0.00 0.00 0.00 0.00 0.00 0.00 0.00 0.00 0.00 0.00 0.00 0.00 0.00 0.00 0.00 0.00 0.00 0.00 0.00 0.00 0.00 0.00 0.00 0.00 0.00 0.00 0.00 0.00 0.00 0.00 0.00 0.00 0.00 0.00 0.00 0.00 0.00 0.00 0.00 0.00 0.00 0.00 0.00 0.00 0.00 0.00 0.00 0.00 0.00 0.00 0.00 0.00
0.00 0.00 0.00 0.00 0.00 0.00 0.00 0.00 0.00 0.00 0.00 0.00 0.00 0.00 0.00 0.00 0.00 0.00 0.00 0.00 0.00 0.00 0.00 0.00 0.00 0.00 0.00 0.00 0.00 0.00 0.00 0.00 0.00 0.00 0.00 0.00 0.00 0.00 0.00 0.00 0.00 0.00 0.00 0.00 0.00 0.00 0.00 0.00 0.00 0.00 0.00 0.00 0.00 0.00
0.00 0.00 0.00 0.00 0.00 0.00 0.00 0.00 0.00 0.00 0.00 0.00 0.00 0.00 0.00 0.00 0.00 0.00 0.00 0.00 0.00 0.00 0.00 0.01 0.00 0.00 0.00 0.00 0.00 0.00 0.00 0.00 0.00 0.00 0.00 0.00 0.00 0.00 0.00 0.00 0.00 0.00 0.00 0.00 0.00 0.00 0.00 0.00 0.00 0.00 0.00 0.00 0.00 0.00
0.00 0.00 0.00 0.00 0.00 0.00 0.00 0.00 0.00 0.00 0.00 0.00 0.00 0.00 0.00 0.01 0.00 0.00 0.00 0.00 0.00 0.00 0.00 0.00 0.00 0.01 0.01 0.00 0.00 0.00 0.00 0.00 0.00 0.00 0.00 0.00 0.00 0.00 0.00 0.00 0.00 0.00 0.00 0.00 0.00 0.00 0.00 0.00 0.00 0.00 0.00 0.00 0.00 0.00
0.00 0.00 0.00 0.00 0.00 0.00 0.00 0.00 0.00 0.00 0.00 0.00 0.00 0.00 0.00 0.00 0.00 0.00 0.00 0.00 0.00 0.00 0.00 0.00 0.00 0.00 0.00 0.00 0.00 0.00 0.00 0.00 0.00 0.00 0.00 0.00 0.00 0.00 0.00 0.00 0.00 0.00 0.00 0.00 0.00 0.00 0.00 0.00 0.00 0.00 0.00 0.00 0.00 0.00
0.00 0.00 0.00 0.00 0.00 0.00 0.00 0.00 0.00 0.00 0.00 0.00 0.00 0.00 0.00 0.00 0.00 0.00 0.00 0.00 0.00 0.00 0.00 0.00 0.00 0.00 0.00 0.00 0.00 0.00 0.00 0.00 0.00 0.00 0.00 0.00 0.00 0.00 0.00 0.00 0.00 0.00 0.00 0.00 0.00 0.00 0.00 0.00 0.00 0.00 0.00 0.00 0.00 0.00
MSLP
1005.71 1006.06 1006.15 1006.20 1006.27 1006.29 1006.28 1006.16 1006.15 1005.93 1005.51 1004.34 1003.77 1004.01 1004.25 1005.19 1005.86 1005.55 1005.98 1006.11 1006.29 1006.41 1006.23 1005.89 1005.39 1005.46 1005.73 1006.32 1006.64 1007.78 1009.00 1009.24 1009.59 1009.98 1009.67 1009.16 1008.58 1007.86 1007.16 1006.80 1006.52 1007.01 1007.07 1006.91 1007.18 1006.91 1005.96 1004.37 1004.21 1005.19 1005.37 1005.75 1005.96 1006.12
1005.45 1005.66 1005.86 1006.01 1006.04 1006.05 1006.03 1005.88 1005.68 1005.72 1005.42 1003.30 1002.81 1003.96 1004.57 1004.95 1005.57 1005.70 1005.88 1006.07 1005.78 1005.55 1006.12 1006.32 1006.29 1006.09 1005.75 1005.91 1006.43 1007.35 1007.38 1007.79 1008.45 1008.77 1008.67 1008.39 1007.95 1007.36 1006.73 1005.98 1005.86 1005.72 1005.94 1006.15 1006.11 1005.39 1005.98 1005.29 1005.26 1005.51 1006.33 1006.35 1006.89 1007.33
1005.18 1005.42 1005.61 1005.80 1005.88 1005.95 1005.92 1005.78 1005.62 1005.33 1004.82 1004.14 1003.82 1004.17 1004.70 1005.27 1005.38 1005.40 1005.98 1006.51 1006.09 1006.24 1006.61 1006.86 1006.92 1007.19 1007.24 1007.09 1006.91 1006.99 1007.43 1007.52 1008.52 1008.85 1009.09 1008.83 1008.09 1007.07 1006.61 1005.70 1005.39 1004.73 1004.81 1005.27 1005.81 1004.96 1004.90 1005.41 1005.53 1006.14 1006.66 1007.01 1007.64 1008.24
1004.91 1005.17 1005.41 1005.62 1005.75 1005.78 1005.82 1005.76 1005.70 1005.63 1005.30 1005.03 1004.91 1004.93 1005.28 1005.71 1006.01 1005.74 1006.40 1006.57 1006.10 1006.07 1006.35 1006.20 1006.33 1006.69 1007.26 1007.56 1007.56 1007.54 1007.52 1008.20 1008.40 1009.23 1009.84 1009.20 1008.77 1008.28 1007.05 1005.76 1005.30 1005.03 1004.75 1004.70 1004.85 1004.95 1005.50 1005.44 1005.63 1006.16 1007.04 1007.75 1008.16 1008.98
1004.58 1004.88 1005.18 1005.42 1005.58 1005.68 1005.70 1005.66 1005.66 1005.69 1005.72 1005.26 1005.41 1005.33 1005.62 1005.97 1006.16 1005.93 1006.09 1005.84 1004.94 1006.27 1006.33 1005.94 1006.75 1006.64 1006.93 1007.46 1007.89 1007.98 1007.97 1007.95 1008.67 1009.60 1009.69 1009.10 1008.31 1008.20 1007.11 1006.56 1005.39 1004.84 1004.47 1004.88 1004.57 1005.44 1005.61 1005.65 1005.61 1006.39 1007.36 1008.19 1008.78 1009.56
1004.17 1004.46 1004.77 1005.08 1005.33 1005.49 1005.64 1005.67 1005.56 1005.54 1005.75 1005.69 1005.90 1006.02 1006.18 1006.54 1006.62 1006.45 1007.06 1007.20 1007.42 1007.58 1007.55 1007.07 1007.24 1006.59 1006.79 1007.12 1007.49 1007.69 1007.72 1008.31 1009.59 1009.92 1009.33 1008.65 1008.21 1008.49 1007.19 1005.81 1004.89 1004.19 1004.41 1004.88 1005.64 1006.26 1006.40 1006.56 1006.38 1006.91 1007.82 1008.57 1009.25 1010.08
1003.56 1003.86 1004.23 1004.62 1005.00 1005.23 1005.48 1005.58 1005.56 1005.56 1005.54 1005.59 1005.70 1006.14 1006.54 1006.97 1006.81 1006.98 1007.78 1007.77 1007.61 1008.15 1008.23 1007.33 1005.86 1006.60 1006.71 1007.09 1007.38 1007.77 1008.44 1009.14 1009.59 1009.94 1009.36 1008.85 1008.47 1008.63 1007.20 1005.75 1005.57 1005.63 1005.41 1005.86 1006.29 1006.81 1007.10 1007.30 1007.64 1008.04 1008.49 1009.07 1010.02 1010.80
1002.70 1003.07 1003.50 1004.02 1004.53 1004.91 1005.16 1005.36 1005.52 1005.81 1006.16 1006.20 1006.24 1006.89 1007.33 1007.65 1007.69 1007.56 1008.05 1007.84 1007.88 1008.27 1008.50 1007.30 1007.17 1007.97 1008.10 1008.02 1008.37 1008.87 1009.08 1009.55 1009.68 1009.22 1008.97 1008.56 1008.64 1008.60 1006.65 1004.84 1004.67 1005.57 1006.18 1006.53 1006.87 1007.30 1007.24 1007.63 1008.28 1008.86 1009.47 1010.17 1010.68 1011.60
1001.67 1001.96 1002.67 1003.38 1004.13 1004.79 1005.27 1005.60 1005.80 1006.24 1006.23 1005.89 1006.57 1007.48 1008.06 1008.03 1007.96 1008.08 1008.65 1009.08 1009.74 1009.26 1008.16 1007.33 1007.11 1007.26 1008.33 1008.08 1008.44 1008.81 1009.12 1009.18 1009.33 1008.71 1008.00 1008.25 1007.08 1006.39 1005.32 1005.27 1005.32 1005.98 1006.46 1006.81 1007.40 1007.50 1007.97 1008.34 1008.85 1009.64 1010.27 1010.81 1011.28 1012.22
998.99 1000.42 1001.69 1002.88 1003.75 1004.38 1005.04 1005.58 1005.97 1006.39 1006.36 1006.59 1007.27 1007.23 1007.85 1007.60 1008.34 1008.54 1009.06 1009.37 1009.98 1009.27 1008.27 1006.90 1006.76 1006.87 1007.75 1007.10 1007.41 1007.80 1007.73 1007.52 1007.45 1006.94 1006.65 1006.77 1005.23 1005.18 1005.25 1005.27 1005.58 1006.38 1007.01 1007.45 1007.74 1008.07 1008.36 1008.84 1009.53 1010.23 1010.81 1011.35 1011.95 1012.93
997.94 998.87 1000.42 1002.21 1003.28 1004.26 1005.05 1005.65 1006.17 1006.36 1006.68 1006.51 1006.99 1007.45 1007.48 1007.97 1008.29 1008.35 1008.41 1008.57 1007.62 1007.22 1006.23 1005.19 1005.34 1006.33 1006.65 1005.81 1005.29 1005.44 1005.54 1005.72 1005.22 1005.48 1005.49 1005.04 1004.18 1004.81 1005.45 1005.79 1006.51 1007.15 1007.63 1008.11 1008.24 1008.37 1008.71 1009.24 1009.99 1010.70 1011.32 1011.96 1012.77 1013.64
998.96 999.54 1000.72 1002.02 1003.37 1004.46 1005.26 1005.67 1005.97 1005.87 1005.95 1006.60 1007.46 1008.01 1008.07 1007.94 1007.90 1007.81 1007.03 1006.69 1005.97 1004.66 1004.25 1004.24 1004.71 1004.90 1004.87 1004.66 1004.79 1004.60 1004.61 1004.35 1004.26 1004.37 1004.49 1004.04 1005.15 1005.66 1006.18 1006.97 1007.48 1007.88 1008.37 1008.67 1008.75 1008.94 1009.39 1009.91 1010.67 1011.31 1012.01 1012.76 1013.62 1014.57
1001.04 1001.35 1001.97 1002.81 1003.80 1004.77 1005.48 1005.95 1006.20 1006.32 1006.52 1007.09 1007.18 1007.22 1007.16 1007.01 1006.59 1006.23 1005.44 1004.55 1003.84 1003.53 1003.38 1003.27 1003.66 1003.64 1003.71 1003.86 1004.36 1004.10 1004.24 1004.32 1004.47 1004.55 1004.14 1004.57 1005.88 1006.55 1007.16 1007.69 1008.29 1008.71 1009.22 1009.54 1009.81 1010.10 1010.44 1011.00 1011.66 1012.33 1013.08 1013.90 1014.77 1015.74
1002.90 1003.22 1003.73 1004.33 1004.98 1005.54 1005.97 1006.11 1006.25 1006.40 1006.43 1005.83 1005.95 1006.22 1005.94 1005.78 1005.27 1004.78 1004.51 1004.04 1004.13 1003.16 1002.65 1002.84 1003.06 1003.15 1003.46 1003.88 1004.32 1004.43 1005.16 1004.97 1004.75 1004.60 1004.56 1005.42 1006.77 1007.34 1007.86 1008.44 1008.98 1009.60 1010.26 1010.59 1011.08 1011.52 1012.06 1012.55 1013.07 1013.63 1014.31 1014.96 1015.71 1016.72
1004.49 1004.71 1005.05 1005.40 1005.61 1005.66 1005.92 1006.21 1006.31 1006.01 1005.19 1005.28 1005.81 1005.58 1005.52 1005.61 1005.67 1005.57 1005.25 1004.84 1004.51 1003.35 1003.03 1003.04 1003.11 1003.20 1003.76 1004.45 1004.67 1005.08 1005.49 1005.07 1004.83 1004.91 1005.96 1006.88 1007.61 1008.18 1008.86 1009.44 1010.14 1010.72 1011.23 1011.74 1012.26 1012.68 1013.12 1013.53 1014.01 1014.62 1015.27 1015.86 1016.49 1017.29
1005.62 1005.61 1005.87 1005.87 1005.98 1005.97 1006.01 1006.22 1006.31 1005.82 1005.22 1005.39 1005.78 1005.77 1005.68 1005.66 1005.62 1005.55 1005.21 1004.81 1004.25 1003.65 1003.27 1003.00 1003.24 1003.66 1004.13 1004.39 1004.79 1004.91 1005.06 1005.12 1005.79 1006.65 1007.21 1007.78 1008.45 1009.10 1009.73 1010.31 1010.89 1011.44 1011.88 1012.40 1012.88 1013.33 1013.78 1014.15 1014.60 1015.16 1015.82 1016.34 1016.96 1017.63
1005.65 1005.94 1006.02 1005.77 1005.67 1005.82 1005.77 1005.43 1005.34 1005.41 1005.41 1005.45 1005.88 1006.29 1006.18 1005.81 1005.70 1005.63 1005.38 1004.51 1004.34 1003.73 1003.41 1003.21 1003.62 1004.13 1004.59 1004.54 1004.86 1005.31 1005.80 1006.53 1007.14 1007.65 1008.14 1008.44 1009.11 1009.76 1010.33 1010.87 1011.45 1011.91 1012.35 1012.80 1013.25 1013.72 1014.16 1014.54 1015.04 1015.53 1016.00 1016.67 1017.23 1017.84
1005.38 1005.64 1005.78 1005.48 1005.33 1005.28 1005.26 1005.23 1005.29 1005.33 1005.65 1005.93 1005.95 1006.32 1006.33 1006.28 1006.01 1005.76 1005.30 1004.79 1004.21 1003.55 1003.47 1003.75 1004.18 1004.50 1004.72 1004.88 1005.20 1006.10 1007.01 1007.67 1008.02 1008.51 1008.93 1009.27 1009.74 1010.33 1010.77 1011.27 1011.81 1012.17 1012.60 1013.05 1013.44 1013.92 1014.33 1014.68 1014.93 1015.30 1015.87 1016.62 1017.22 1017.90
1005.83 1005.82 1005.79 1005.59 1005.22 1004.87 1004.96 1005.31 1005.21 1005.33 1006.02 1006.25 1006.38 1006.52 1006.45 1006.39 1006.02 1005.75 1005.32 1004.84 1004.34 1003.95 1004.08 1004.32 1004.71 1004.76 1005.21 1005.71 1006.17 1006.76 1007.36 1007.64 1008.21 1008.91 1009.58 1009.98 1010.25 1010.71 1011.15 1011.63 1012.04 1012.36 1012.69 1013.06 1013.36 1013.59 1013.96 1014.19 1014.34 1014.93 1015.56 1016.29 1016.70 1017.45
1005.91 1005.84 1005.58 1005.43 1005.18 1004.69 1005.02 1005.36 1005.31 1005.17 1005.43 1005.97 1006.13 1006.17 1006.17 1006.14 1006.17 1006.03 1005.47 1005.02 1004.65 1004.52 1004.63 1004.86 1005.35 1005.93 1006.24 1006.66 1006.77 1006.95 1007.43 1007.84 1008.32 1008.87 1009.57 1010.18 1010.63 1010.99 1011.33 1011.59 1011.87 1012.29 1012.67 1012.99 1013.17 1013.39 1013.83 1014.21 1014.49 1014.85 1015.35 1015.84 1016.37 1017.07
1005.59 1005.78 1005.49 1005.23 1005.01 1004.99 1005.30 1005.28 1005.34 1005.55 1005.63 1005.76 1006.07 1005.96 1005.99 1006.01 1005.94 1005.84 1005.53 1005.37 1005.09 1005.05 1005.32 1005.80 1006.50 1007.09 1007.25 1007.47 1007.53 1007.55 1007.92 1008.10 1008.20 1008.64 1008.99 1009.87 1010.53 1010.85 1011.36 1011.70 1012.06 1012.31 1012.51 1012.78 1013.09 1013.48 1013.80 1013.89 1014.36 1014.92 1015.50 1015.87 1016.33 1016.92
1006.06 1006.08 1005.46 1005.37 1005.34 1005.54 1005.69 1005.83 1005.46 1005.73 1005.63 1005.81 1005.91 1005.86 1005.84 1006.04 1005.93 1005.79 1005.79 1005.43 1005.51 1006.12 1006.41 1006.55 1006.81 1007.21 1007.54 1007.74 1007.88 1007.93 1008.29 1008.52 1008.88 1009.22 1009.50 1009.86 1010.28 1010.67 1011.09 1011.51 1011.86 1012.17 1012.44 1012.75 1013.04 1013.39 1013.78 1014.01 1014.55 1015.10 1015.57 1015.93 1016.43 1016.97
1006.37 1006.19 1005.86 1005.76 1006.02 1006.02 1006.48 1006.18 1005.82 1005.79 1005.77 1005.91 1006.08 1005.83 1005.93 1005.95 1005.83 1006.03 1005.61 1005.67 1006.29 1006.86 1007.03 1007.08 1007.07 1007.23 1007.68 1008.05 1008.33 1008.56 1008.68 1008.71 1008.87 1009.23 1009.61 1009.74 1010.12 1010.60 1010.91 1011.33 1011.65 1012.06 1012.35 1012.76 1013.08 1013.52 1013.93 1014.40 1014.96 1015.25 1015.54 1016.05 1016.50 1017.03
1006.72 1006.62 1006.65 1006.43 1006.30 1006.55 1006.70 1006.21 1005.91 1005.91 1005.91 1005.90 1005.88 1005.99 1005.98 1006.04 1006.12 1005.71 1005.20 1005.15 1006.27 1007.00 1007.31 1007.48 1007.58 1007.69 1007.95 1008.18 1008.25 1008.44 1008.62 1008.75 1009.00 1009.51 1009.71 1009.91 1010.15 1010.53 1010.86 1011.27 1011.58 1011.97 1012.32 1012.60 1013.12 1013.61 1014.11 1014.56 1015.02 1015.31 1015.65 1015.99 1016.44 1017.01
1006.98 1007.53 1007.28 1006.94 1006.85 1006.71 1006.51 1006.33 1006.27 1005.98 1006.10 1006.26 1006.28 1006.14 1006.13 1006.32 1006.02 1005.55 1005.15 1005.22 1006.36 1006.87 1007.16 1007.39 1007.49 1007.55 1007.65 1007.93 1008.23 1008.50 1008.96 1008.96 1009.07 1009.32 1009.82 1009.69 1009.97 1010.40 1010.84 1011.25 1011.68 1012.10 1012.47 1012.86 1013.24 1013.66 1014.19 1014.62 1015.02 1015.26 1015.60 1015.88 1016.30 1016.83
1006.95 1007.31 1007.23 1006.70 1006.70 1006.54 1006.34 1006.26 1006.28 1006.22 1006.25 1006.39 1006.36 1006.41 1006.53 1006.37 1006.05 1005.32 1004.95 1005.41 1005.98 1006.55 1006.96 1007.27 1007.21 1007.23 1007.36 1007.51 1007.87 1008.36 1008.68 1008.92 1009.06 1009.30 1009.50 1009.63 1009.83 1010.45 1010.72 1011.06 1011.55 1012.10 1012.42 1012.76 1013.14 1013.56 1014.01 1014.54 1014.83 1015.15 1015.50 1015.90 1016.35 1016.73
1006.85 1006.94 1006.90 1007.05 1006.77 1006.50 1006.59 1006.61 1006.48 1006.43 1006.34 1006.21 1006.23 1006.52 1006.49 1006.14 1005.36 1005.29 1006.04 1006.20 1006.25 1006.45 1006.55 1006.96 1007.10 1007.17 1007.38 1007.61 1007.91 1008.29 1008.59 1008.99 1009.29 1009.51 1009.60 1009.71 1009.96 1010.19 1010.63 1011.06 1011.30 1011.54 1012.02 1012.67 1013.05 1013.38 1013.81 1014.31 1014.68 1015.07 1015.41 1015.82 1016.27 1016.67
1007.01 1007.05 1007.00 1007.06 1006.83 1006.82 1006.58 1006.48 1006.39 1006.20 1006.11 1006.33 1006.43 1006.23 1006.00 1005.59 1005.45 1006.11 1006.40 1006.79 1007.00 1007.02 1007.21 1007.42 1007.55 1007.69 1007.85 1007.95 1008.23 1008.94 1009.37 1009.68 1010.08 1010.13 1010.20 1010.42 1010.68 1010.98 1011.22 1011.43 1011.76 1011.97 1012.13 1012.70 1013.07 1013.36 1013.71 1014.15 1014.57 1014.98 1015.33 1015.73 1016.22 1016.67
1007.20 1007.40 1007.32 1007.29 1007.16 1006.87 1006.63 1006.42 1006.32 1006.45 1006.64 1006.62 1006.36 1005.89 1005.79 1005.82 1006.21 1006.37 1006.65 1006.90 1007.16 1007.27 1007.43 1007.64 1007.96 1008.20 1008.42 1008.60 1008.85 1009.09 1009.39 1009.61 1009.73 1009.87 1010.02 1010.15 1010.60 1011.08 1011.38 1011.66 1012.00 1012.24 1012.54 1012.88 1013.27 1013.53 1013.83 1014.18 1014.57 1014.92 1015.36 1015.79 1016.34 1016.79
1007.55 1007.85 1007.35 1007.33 1007.09 1006.53 1006.52 1006.55 1006.67 1006.82 1006.82 1006.67 1006.67 1006.35 1006.07 1005.90 1006.11 1006.39 1006.55 1006.80 1006.99 1007.08 1007.21 1007.43 1007.77 1008.09 1008.21 1008.47 1008.79 1009.22 1009.49 1009.61 1009.70 1009.79 1009.87 1010.09 1010.24 1010.75 1011.26 1011.64 1011.91 1012.23 1012.55 1012.82 1013.25 1013.76 1014.21 1014.50 1014.95 1015.22 1015.55 1015.98 1016.46 1016.90
1007.71 1007.78 1007.53 1007.21 1006.82 1006.80 1007.02 1007.28 1007.36 1007.32 1007.19 1006.77 1006.58 1006.39 1005.99 1005.91 1006.02 1006.09 1006.18 1006.25 1006.52 1006.84 1007.11 1007.31 1007.57 1007.77 1007.93 1008.14 1008.37 1008.76 1009.12 1009.60 1009.83 1010.04 1010.18 1010.49 1010.72 1010.98 1011.23 1011.50 1011.80 1012.13 1012.39 1012.71 1013.16 1013.59 1014.00 1014.44 1014.74 1015.14 1015.55 1015.95 1016.40 1016.84
1007.71 1007.45 1007.30 1007.05 1006.82 1007.28 1007.55 1007.24 1006.98 1006.80 1006.47 1006.36 1006.16 1006.12 1006.10 1006.07 1005.71 1005.27 1005.46 1005.81 1006.12 1006.33 1006.49 1006.75 1006.98 1007.24 1007.71 1007.94 1008.25 1008.53 1008.82 1009.11 1009.48 1009.89 1010.35 1010.52 1010.83 1011.08 1011.25 1011.50 1011.81 1012.03 1012.25 1012.56 1012.98 1013.37 1013.84 1014.20 1014.51 1014.89 1015.31 1015.73 1016.26 1016.79
1007.62 1007.62 1007.46 1007.25 1006.97 1007.01 1007.04 1007.22 1006.89 1006.56 1006.34 1006.09 1005.83 1005.81 1005.90 1005.77 1005.10 1004.86 1005.54 1005.62 1005.71 1005.82 1005.90 1006.28 1006.65 1007.00 1007.42 1007.84 1008.19 1008.58 1008.91 1009.25 1009.57 1009.87 1010.19 1010.57 1010.85 1011.09 1011.34 1011.61 1011.82 1012.04 1012.26 1012.51 1012.84 1013.19 1013.64 1013.95 1014.25 1014.62 1015.05 1015.57 1016.25 1016.86
Thickness
5283 5280 5279 5277 5275 5274 5273 5276 5281 5283 5284 5293 5304 5314 5325 5329 5337 5350 5355 5363 5370 5372 5385 5397 5408 5413 5418 5419 5419 5419 5408 5411 5412 5406 5422 5434 5436 5451 5458 5462 5466 5455 5457 5463 5461 5453 5455 5497 5494 5479 5485 5480 5482 5482
5279 5276 5272 5269 5268 5268 5272 5278 5282 5283 5284 5304 5317 5320 5328 5334 5336 5345 5350 5358 5367 5379 5382 5387 5393 5400 5412 5417 5420 5414 5424 5424 5422 5421 5431 5437 5437 5447 5455 5454 5465 5457 5463 5462 5466 5473 5460 5474 5476 5476 5466 5470 5465 5465
5272 5267 5264 5262 5264 5267 5272 5278 5283 5288 5295 5305 5317 5322 5328 5330 5336 5344 5348 5351 5360 5365 5373 5376 5379 5384 5391 5398 5407 5410 5414 5419 5412 5413 5413 5417 5422 5444 5438 5455 5457 5467 5468 5459 5454 5471 5472 5466 5466 5460 5457 5458 5454 5452
5265 5260 5258 5260 5263 5268 5273 5279 5283 5287 5293 5302 5311 5319 5323 5325 5328 5337 5339 5345 5356 5363 5365 5376 5380 5384 5384 5388 5394 5399 5405 5405 5409 5402 5393 5402 5402 5416 5431 5450 5449 5454 5457 5458 5458 5462 5456 5458 5458 5454 5446 5441 5440 5436
5266 5260 5259 5261 5265 5270 5275 5280 5283 5288 5293 5303 5309 5315 5319 5323 5328 5336 5342 5349 5359 5360 5362 5374 5368 5377 5380 5379 5380 5385 5391 5397 5397 5388 5389 5396 5415 5413 5425 5429 5441 5452 5452 5447 5457 5448 5446 5449 5452 5446 5434 5426 5425 5420
5272 5266 5264 5265 5268 5273 5277 5281 5285 5291 5295 5301 5307 5311 5316 5319 5324 5331 5325 5337 5339 5343 5345 5353 5359 5369 5372 5372 5373 5379 5386 5386 5376 5375 5392 5403 5411 5403 5412 5429 5446 5453 5452 5448 5436 5433 5428 5432 5439 5436 5424 5417 5411 5406
5279 5276 5272 5271 5274 5278 5281 5285 5290 5295 5301 5306 5311 5313 5315 5317 5324 5332 5334 5333 5335 5332 5334 5350 5376 5367 5366 5365 5368 5371 5372 5369 5372 5368 5380 5391 5399 5393 5409 5421 5429 5429 5435 5430 5426 5421 5418 5419 5416 5415 5411 5407 5397 5391
5288 5286 5284 5282 5282 5284 5287 5290 5292 5295 5296 5301 5306 5307 5309 5311 5317 5327 5326 5329 5330 5328 5332 5351 5361 5347 5343 5346 5349 5351 5356 5356 5362 5377 5383 5389 5387 5382 5403 5430 5438 5427 5420 5417 5415 5413 5417 5414 5406 5400 5395 5388 5384 5376
5298 5296 5293 5289 5287 5286 5286 5288 5291 5291 5295 5302 5300 5297 5298 5304 5312 5318 5315 5315 5313 5323 5339 5352 5355 5361 5338 5348 5348 5350 5353 5358 5361 5370 5387 5385 5401 5402 5422 5420 5423 5416 5412 5411 5406 5408 5403 5399 5395 5387 5381 5377 5374 5366
5320 5312 5303 5296 5293 5294 5293 5293 5292 5292 5295 5297 5296 5302 5296 5308 5307 5311 5315 5314 5313 5320 5332 5351 5352 5360 5347 5361 5362 5366 5371 5377 5378 5390 5399 5395 5419 5419 5421 5422 5419 5410 5404 5400 5396 5393 5393 5388 5382 5376 5372 5369 5367 5358
5334 5328 5319 5308 5305 5301 5298 5297 5295 5296 5296 5304 5304 5305 5309 5309 5313 5318 5321 5324 5344 5345 5355 5370 5371 5357 5354 5378 5387 5395 5397 5394 5399 5397 5402 5414 5431 5421 5414 5411 5404 5397 5393 5389 5390 5390 5387 5383 5375 5370 5366 5362 5356 5350
5336 5333 5326 5319 5312 5307 5303 5303 5304 5310 5314 5314 5311 5309 5314 5319 5323 5329 5339 5344 5351 5368 5376 5373 5368 5366 5375 5387 5388 5401 5398 5413 5409 5417 5416 5424 5406 5403 5401 5391 5387 5385 5382 5381 5382 5382 5378 5374 5367 5362 5357 5352 5345 5338
5335 5333 5330 5326 5320 5315 5312 5313 5314 5316 5318 5319 5323 5327 5329 5337 5344 5345 5355 5376 5379 5382 5384 5387 5383 5391 5395 5398 5394 5403 5396 5405 5409 5401 5415 5416 5393 5389 5384 5382 5377 5375 5371 5370 5369 5368 5366 5361 5355 5349 5343 5335 5328 5321
5334 5333 5330 5327 5323 5321 5319 5320 5322 5324 5326 5337 5342 5339 5350 5351 5364 5376 5377 5380 5369 5387 5396 5395 5393 5396 5396 5388 5390 5388 5384 5396 5397 5402 5410 5402 5380 5379 5378 5375 5372 5366 5358 5359 5354 5350 5343 5338 5333 5328 5323 5318 5312 5304
5331 5330 5328 5327 5326 5328 5327 5327 5328 5333 5346 5348 5345 5353 5356 5356 5351 5352 5358 5363 5366 5385 5391 5391 5395 5398 5389 5376 5385 5384 5376 5391 5404 5406 5387 5376 5371 5370 5365 5362 5354 5349 5346 5343 5339 5336 5331 5327 5322 5316 5309 5304 5299 5292
5327 5329 5328 5328 5328 5330 5331 5331 5333 5341 5349 5350 5347 5354 5360 5356 5358 5360 5361 5362 5375 5383 5388 5394 5388 5381 5378 5385 5383 5387 5396 5399 5389 5373 5370 5368 5362 5359 5354 5349 5345 5343 5341 5337 5333 5328 5323 5320 5316 5310 5303 5297 5289 5280
5329 5328 5328 5331 5333 5333 5335 5341 5345 5346 5348 5351 5348 5345 5346 5357 5358 5356 5355 5373 5374 5381 5377 5390 5378 5377 5380 5385 5385 5385 5385 5371 5365 5363 5360 5361 5356 5351 5345 5343 5339 5337 5335 5331 5327 5323 5318 5315 5310 5304 5299 5292 5285 5278
5332 5330 5330 5333 5336 5338 5341 5344 5345 5349 5343 5344 5349 5344 5345 5345 5354 5353 5360 5368 5375 5383 5387 5381 5380 5376 5376 5379 5385 5371 5359 5353 5355 5354 5351 5350 5347 5343 5342 5339 5335 5333 5330 5326 5323 5317 5313 5310 5309 5305 5299 5290 5284 5276
5326 5327 5328 5331 5336 5343 5343 5342 5347 5343 5337 5339 5343 5343 5345 5346 5354 5356 5360 5366 5373 5378 5377 5377 5372 5381 5378 5373 5366 5359 5355 5359 5354 5348 5341 5339 5340 5338 5336 5333 5330 5328 5327 5323 5322 5321 5316 5314 5312 5305 5298 5291 5287 5279
5324 5325 5329 5331 5335 5344 5340 5339 5345 5349 5348 5345 5346 5347 5349 5349 5349 5348 5357 5363 5368 5370 5370 5372 5370 5366 5364 5358 5361 5361 5358 5356 5352 5349 5341 5337 5335 5333 5333 5333 5332 5328 5325 5322 5321 5319 5314 5309 5306 5303 5297 5292 5287 5279
5328 5327 5329 5334 5338 5341 5339 5340 5342 5344 5345 5344 5344 5349 5349 5351 5351 5350 5355 5359 5364 5367 5365 5360 5349 5344 5348 5349 5351 5353 5350 5350 5351 5348 5347 5338 5334 5334 5330 5328 5325 5325 5323 5321 5317 5313 5309 5309 5304 5298 5291 5287 5283 5277
5325 5324 5331 5332 5334 5334 5334 5335 5341 5340 5345 5343 5345 5348 5348 5343 5346 5350 5351 5357 5360 5350 5349 5350 5348 5346 5344 5345 5345 5347 5343 5342 5339 5336 5335 5334 5334 5332 5330 5327 5324 5321 5319 5316 5314 5310 5306 5304 5298 5292 5287 5283 5278 5273
5322 5324 5328 5329 5323 5326 5320 5329 5332 5335 5334 5336 5338 5342 5342 5342 5346 5345 5350 5352 5343 5339 5340 5342 5345 5346 5342 5340 5338 5337 5337 5338 5338 5335 5333 5334 5332 5328 5328 5325 5322 5318 5316 5312 5310 5305 5301 5296 5290 5287 5284 5279 5274 5268
5318 5317 5313 5317 5323 5317 5317 5322 5332 5332 5334 5336 5338 5332 5337 5338 5339 5345 5353 5361 5341 5334 5333 5332 5335 5336 5336 5335 5337 5337 5336 5337 5335 5330 5329 5328 5327 5325 5324 5320 5318 5315 5312 5310 5305 5300 5295 5291 5286 5283 5279 5276 5271 5264
5317 5309 5310 5311 5312 5315 5316 5318 5317 5329 5324 5324 5326 5329 5331 5332 5334 5342 5349 5353 5334 5330 5330 5331 5332 5334 5334 5333 5332 5332 5329 5331 5330 5329 5323 5328 5325 5322 5318 5315 5311 5308 5305 5300 5297 5293 5288 5284 5280 5277 5274 5271 5266 5261
5311 5304 5309 5313 5312 5315 5319 5317 5315 5318 5320 5317 5320 5324 5322 5324 5326 5339 5353 5342 5337 5331 5328 5326 5331 5333 5334 5335 5331 5327 5326 5327 5326 5324 5323 5323 5322 5314 5313 5311 5306 5301 5298 5295 5291 5287 5282 5276 5273 5270 5266 5262 5258 5254
5305 5304 5305 5302 5307 5313 5309 5308 5313 5312 5311 5314 5318 5313 5315 5319 5333 5342 5325 5326 5330 5328 5331 5328 5328 5329 5329 5328 5326 5324 5323 5320 5318 5317 5317 5316 5314 5313 5309 5305 5302 5301 5295 5288 5284 5280 5275 5269 5265 5261 5257 5253 5249 5246
5297 5294 5295 5295 5299 5300 5301 5304 5305 5307 5312 5311 5309 5308 5312 5323 5332 5318 5316 5314 5314 5317 5317 5316 5317 5317 5317 5318 5316 5310 5307 5305 5301 5303 5304 5302 5301 5299 5297 5294 5291 5288 5286 5280 5276 5272 5267 5262 5257 5252 5249 5245 5240 5237
5288 5285 5287 5279 5283 5290 5294 5298 5301 5300 5298 5297 5301 5311 5312 5313 5308 5307 5307 5307 5306 5307 5307 5306 5305 5304 5303 5303 5302 5302 5300 5300 5301 5300 5300 5303 5297 5292 5288 5285 5281 5278 5275 5271 5266 5263 5258 5254 5249 5245 5241 5237 5233 5229
5277 5271 5281 5276 5277 5289 5291 5290 5289 5287 5289 5292 5292 5297 5302 5304 5302 5300 5300 5299 5299 5300 5302 5302 5299 5298 5299 5298 5296 5293 5292 5293 5293 5296 5297 5296 5295 5286 5281 5278 5275 5271 5268 5265 5260 5255 5250 5246 5242 5239 5236 5232 5228 5224
5268 5266 5269 5274 5279 5279 5275 5271 5270 5272 5273 5279 5283 5285 5292 5295 5293 5294 5295 5297 5296 5295 5294 5294 5293 5293 5294 5294 5293 5291 5290 5286 5284 5284 5283 5281 5279 5276 5274 5272 5269 5265 5263 5260 5255 5251 5248 5243 5240 5236 5232 5228 5224 5220
5259 5263 5266 5267 5272 5262 5258 5264 5268 5269 5274 5274 5277 5279 5280 5282 5288 5298 5292 5291 5291 5291 5291 5291 5291 5290 5287 5288 5286 5284 5283 5283 5280 5277 5274 5273 5270 5268 5267 5264 5262 5260 5258 5255 5252 5249 5245 5241 5238 5234 5230 5226 5220 5215
5249 5249 5251 5253 5258 5256 5258 5255 5259 5261 5264 5266 5272 5274 5273 5277 5287 5292 5279 5282 5285 5287 5288 5286 5284 5283 5280 5278 5277 5275 5274 5272 5270 5268 5266 5264 5262 5260 5258 5256 5254 5253 5251 5250 5247 5244 5240 5238 5235 5232 5227 5221 5214 5208